Showing default

OPS 9341 (IDSCS 19), 3284

Orbit data source: Space-Track

OPS 9341 (IDSCS 19), 3284 is a payload satellite owned by SAMSO (US) in GEO that was launched on Thu, 13 Jun 1968 UTC via a TITAN IIIC launch vehicle from the Air Force Eastern Test Range (AFETR). Payload-class satellites include a variety of spacecraft equipped with specific instruments for various scientific and technological missions. These include communications satellites like Starlink; space stations such as the ISS; scientific satellites like the Hubble; Earth observation satellites from companies like Planet Labs, Umbra, and HawkEye 360; GPS; miniature CubeSats for education and research; and military/defense satellites.

Loading next visibility...
Identifier
3284, 1968-050A
Orbit
GEO
Last TLE update
1 day ago
Origin
Manufacturer
Philco-Ford
Mission
Non-operational Defense Communications
Bus & Motor
IDCSP, Unknown motor
Mass
45 kg wet, 45 kg dry
Launch date (UTC)
1968-06-13 (57 years ago)
Launch vehicle
TITAN IIIC
Launch site
Air Force Eastern Test Range (AFETR)
Object type
Payload
Rocket body
Debris
Shape & HBR
Poly, 0.9 m
Radar Cross Section
0.926 m², Medium (>0.1 m² and < 1m²)

Expand to show TLE details & history

TLE from 1 day ago
0 OPS 9341 (IDSCS 19)
1 03284U 68050A   25114.54368957 -.00000068  00000-0  00000-0 0  9991
2 03284   6.3589  55.4192 0012453 140.0068  50.8786  1.07854146 45694
Epoch: 2025-04-24T13:02Z
Definitive object data (Epoch: 2025-04-24T13:02:54.778Z)
Latitude
-1.21279°
Longitude
-162.1934°
Altitude
33,754.414 km
Speed
3.153 km/s
True Right ascension
16h 25m 23s
True Declination
-1° 12' 41"
Sunlit
Object was in daylight at TLE epoch
Visualization TLE readout
Latitude
-6.02373°
Longitude
-101.6759°
Altitude
33,805.097 km
Speed
3.149 km/s
Apparent Right ascension
20h 12m 54s
Apparent Declination
-13° 03' 60"
Sunlit
Object is in daylight
Visualization observer readout
Local Sidereal Time
22:17:34
Azimuth
215.44° SW
Elevation
29.62°
Doppler factor
1
Orbital elements
Apogee altitude
33,837.629 km
Perigee altitude
33,737.592 km
Semi-major axis
40,165.747 km
Eccentricity
0.0012453
Inclination
6.3589°
RAAN
55.4192°
Arg. of periapsis
140.0068°
True anomaly
50.98942°
Mean anomaly
50.8786°
Eccentric anomaly
50.934°
Mean motion
0.26962 °/min
BSTAR
Unknown
Orbital period
1335.19 mins
Loading historical data...
3284 neighbors
Loading maneuver chart data...
Loading SW <> Apogee altitude chart data...
Loading historical data...
Loading historical data...
Loading historical data...
Loading historical data...
Loading historical data...
Loading historical data...
Loading historical data...

OPS 9341 (IDSCS 19) Visibility forecast

Observer location: undefined°, undefined°

Span
Click to sort rows by Start time (UTC) header in descending order
Start Az.
Max El. time (UTC)
Max El. Az.
Max El.
End time (UTC)
End Az.
1440 mins2025-04-25 15:02:31.051Z215.429° SW2025-04-26 04:06:31.051Z202.058° SSW36.763°2025-04-26 15:02:31.051Z180.138° SSW
|